Weather History for KARR - February, 2014

Change the Weather History Date:

Wednesday, February 26, 2014

  Actual Average Record
Temperature  
Mean Temperature 9 °F 29 °F  
Max Temperature 18 °F 38 °F 61 °F (2000)
Min Temperature 0 °F 20 °F -11 °F (2015)
Degree Days  
Heating Degree Days 56 36  
Month to date heating degree days 1366 1052  
Since 1 July heating degree days 5470 5069  
Cooling Degree Days 0 0  
Month to date cooling degree days 0 0  
Year to date cooling degree days 0 0  
Moisture  
Dew Point -2 °F    
Average Humidity 65    
Maximum Humidity 76    
Minimum Humidity 53    
Precipitation  
Precipitation 0.00 in 0.08 in 1.94 in (2009)
Month to date precipitation 1.05 1.47  
Year to date precipitation 1.85 2.94  
Sea Level Pressure  
Sea Level Pressure 30.07 in    
Wind  
Wind Speed 17 mph (WSW)    
Max Wind Speed 25 mph    
Max Gust Speed 33 mph    
Visibility 10 miles    
Events      
T = Trace of Precipitation, MM = Missing Value Source: NWS Daily Summary

Daily Weather History Graph

Daily Weather History Graph

Search for Another Location

Airport or City:

Trip Planner

Search our weather history database for the weather conditions in past years. The results will help you decide how hot, cold, wet, or windy it might be!

Date:

Astronomy

Feb. 26, 2014 Rise Set
Actual Time 6:33 AM CST 5:40 PM CST
Civil Twilight 6:05 AM CST 6:08 PM CST
Nautical Twilight 5:33 AM CST 6:41 PM CST
Astronomical Twilight 5:01 AM CST 7:13 PM CST
Moon 4:21 AM CST 2:53 PM CST
Length of Visible Light 12h 03m
Length of Day
11h 07m
Waning Crescent, 10% of the Moon is Illuminated
Feb 26
Waning Crescent
Mar 1
New
Mar 8
First Quarter
Mar 16
Full
Mar 23
Last Quarter

Hourly Weather History & Observations

Time (CST) Temp. Windchill Dew Point Humidity Pressure Visibility Wind Dir Wind Speed Gust Speed Precip Events Conditions
12:52 AM 3.9 °F -16.6 °F -5.1 °F 66% 30.28 in 10.0 mi NW 19.6 mph - N/A   Clear
1:52 AM 3.0 °F -16.7 °F -5.1 °F 69% 30.30 in 10.0 mi WNW 17.3 mph - N/A   Clear
2:52 AM 1.9 °F -16.2 °F -6.0 °F 69% 30.30 in 10.0 mi WNW 13.8 mph - N/A   Clear
3:52 AM 1.0 °F -17.3 °F -6.0 °F 72% 30.28 in 10.0 mi WNW 13.8 mph - N/A   Clear
4:52 AM 1.0 °F -18.0 °F -6.0 °F 72% 30.29 in 9.0 mi WNW 15.0 mph - N/A   Clear
5:52 AM -0.0 °F -19.4 °F -7.1 °F 72% 30.29 in 10.0 mi WNW 15.0 mph - N/A   Clear
6:52 AM -0.0 °F -19.4 °F -7.1 °F 72% 30.28 in 9.0 mi West 15.0 mph - N/A   Clear
7:52 AM -0.0 °F -18.0 °F -7.1 °F 72% 30.27 in 9.0 mi WNW 12.7 mph - N/A   Clear
8:52 AM 1.9 °F -15.5 °F -5.1 °F 72% 30.26 in 9.0 mi WSW 12.7 mph - N/A   Clear
9:52 AM 3.0 °F -15.5 °F -4.0 °F 73% 30.24 in 9.0 mi WSW 15.0 mph 19.6 mph N/A   Clear
10:52 AM 5.0 °F -11.6 °F -2.9 °F 70% 30.22 in 10.0 mi WSW 12.7 mph - N/A   Clear
11:52 AM 7.0 °F -11.6 °F -2.9 °F 64% 30.17 in 10.0 mi WSW 17.3 mph - N/A   Clear
12:52 PM 10.0 °F -8.6 °F -0.0 °F 64% 30.11 in 10.0 mi SW 19.6 mph 25.3 mph N/A   Clear
1:52 PM 10.9 °F -7.9 °F -0.0 °F 61% 30.05 in 10.0 mi SW 20.7 mph 27.6 mph N/A   Mostly Cloudy
2:52 PM 12.9 °F -4.9 °F -0.9 °F 54% 30.00 in 10.0 mi WSW 19.6 mph 27.6 mph N/A   Partly Cloudy
3:52 PM 12.9 °F -3.9 °F -0.9 °F 54% 29.95 in 10.0 mi SW 17.3 mph 29.9 mph N/A   Clear
4:52 PM 12.9 °F -5.7 °F -2.0 °F 51% 29.90 in 10.0 mi SW 21.9 mph 31.1 mph N/A   Clear
5:52 PM 12.9 °F -3.4 °F -0.0 °F 56% 29.87 in 10.0 mi SW 16.1 mph 29.9 mph N/A   Overcast
6:52 PM 12.9 °F -3.9 °F 1.0 °F 59% 29.84 in 10.0 mi SW 17.3 mph 25.3 mph N/A   Scattered Clouds
7:52 PM 12.9 °F -2.8 °F 1.9 °F 62% 29.81 in 10.0 mi SW 15.0 mph 24.2 mph N/A   Scattered Clouds
8:52 PM 14.0 °F -1.4 °F 3.9 °F 64% 29.78 in 10.0 mi SW 15.0 mph 25.3 mph N/A   Mostly Cloudy
9:52 PM 17.1 °F 1.0 °F 5.0 °F 59% 29.75 in 10.0 mi SW 18.4 mph - N/A   Overcast
10:52 PM 17.1 °F 1.5 °F 6.1 °F 62% 29.71 in 10.0 mi WSW 17.3 mph - N/A   Partly Cloudy
11:52 PM 18.0 °F 0.6 °F 8.1 °F 65% 29.70 in 10.0 mi West 23.0 mph - N/A   Partly Cloudy